Погода в Благовещенке

Казахстан     54°22′08″N   66°58′23″E
темп.,
°C
ветер,
м/с
пор.,
м/с
влажн.,
%
обл.,
%
осадки,
мм/ч
давл.,
гПа
погр.,
м
25 февраля, чт
чт2500:00−26юз1298100 0.1 100919
03:00−25сз2298100 0.1 101123
06:00−21с61295100 0.2 1013530
09:00−22ссз71194100 0.1 1017595
12:00−23сз6993100 0.2 1020536
15:00−24сз6991100 0.0 1023469
18:00−25зсз489498 0.1 1026216
21:00−28з479753 0.0 102996
26 февраля, пт
пт2600:00−29з459856 0.0 103180
03:00−28зюз369895 0.0 103198
06:00−30зюз349887 0.1 103361
09:00−30юз349981 0.0 103376
12:00−26юз469690 0.0 1034232
15:00−24ююз469476 0.0 1033262
18:00−25ююз379442 0.0 1033153
21:00−28ююз47960 0.0 1033100
27 февраля, сб
сб2700:00−29ююз47970 0.0 1033120
03:00−31ю47970 0.0 1031109
06:00−31ю47970 0.0 1031111
09:00−30ю47980 0.0 1029118
12:00−23ююв59951 0.0 1027259
15:00−17ююв6109271 0.0 1024366
18:00−14ююв7139284 0.1 1020655
21:00−10ююв81494100 0.8 1014834
28 февраля, вс
вс2800:00−9ю81493100 1.9 1011876
03:00−8ююв71493100 1.3 1006765
06:00−6ююв61394100 1.9 1003576
09:00−5ю51195100 0.5 1002384
12:000юз51093100 0.6 1001705
15:000юз6994100 0.1 1001710
18:00−1юз61091100 0.3 1001664
21:00−2юз51096100 0.4 1002435
1 марта, пн
пн100:00−3юз3897100 0.8 1003251
03:00−4зюз3697100 0.5 1004181
06:00−11ссз579599 1.0 1006215
09:00−15ссз589591 0.2 1008245
12:00−16ссз469594 0.3 1011282
15:00−16сз579397 0.0 1014337
18:00−17зсз369599 0.0 1016199
21:00−21зсз349873 0.0 101950